Location: Albany
(35.0170°S, 117.8920°E)
Time: 01:10:39
(UTC+08:00)

Explorer 7 - Pass Details

Date: 30 January 2021
Orbit: 484 x 677 km, 50.3° (Epoch: 01 March)

Event Time Altitude Azimuth Distance (km) Brightness Sun altitude
Rises 21:58:49 0° 244° (WSW) 2,887 11.5 -27.5°
Reaches altitude 10° 22:01:39 10° 260° (W) 1,935 10.2 -27.8°
Enters shadow 22:03:46 18° 286° (WNW) 1,435 9.1 -28.1°
Maximum altitude 22:04:55 20° 307° (NW) 1,338 - -28.3°
Drops below altitude 10° 22:08:01 10° 356° (N) 1,826 - -28.6°
Sets 22:10:36 0° 13° (NNE) 2,672 - -29.0°
